Weather History for Anaktuvuk Pass, AK

Change the Weather History Date:

Monday, January 27, 2014

  Actual Average Record
Temperature  
Mean Temperature 16 °F -  
Max Temperature 21 °F -3 °F 21 °F (2007)
Min Temperature 12 °F -14 °F -38 °F (2012)
Degree Days  
Heating Degree Days 48    
Moisture  
Dew Point 10 °F    
Average Humidity 74    
Maximum Humidity 85    
Minimum Humidity 68    
Precipitation  
Precipitation 0.00 in - - ()
Sea Level Pressure  
Sea Level Pressure 29.90 in    
Wind  
Wind Speed 6 mph (SSW)    
Max Wind Speed 13 mph    
Max Gust Speed -    
Visibility 10 miles    
Events      
Averages and records for this station are not official NWS values.
T = Trace of Precipitation, MM = Missing Value Source: NWS Daily Summary

Daily Weather History Graph

Daily Weather History Graph

Search for Another Location

Airport:

Trip Planner

Search our weather history database for the weather conditions in past years. The results will help you decide how hot, cold, wet, or windy it might be!

Date:

Astronomy

Jan. 27, 2014 Rise Set
Actual Time 10:46 AM AKST 3:54 PM AKST
Civil Twilight 9:27 AM AKST 5:12 PM AKST
Nautical Twilight 8:14 AM AKST 6:25 PM AKST
Astronomical Twilight 7:08 AM AKST 7:32 PM AKST
Moon 8:18 AM AKST (1/27) 12:10 PM AKST (1/27)
Length of Visible Light 7h 45m
Length of Day
5h 08m
Waning Crescent, 13% of the Moon is Illuminated
Jan 27
Waning Crescent
Jan 30
New
Feb 6
First Quarter
Feb 14
Full
Feb 22
Last Quarter

Hourly Weather History & Observations

Time (AKST) Temp. Windchill Dew Point Humidity Pressure Visibility Wind Dir Wind Speed Gust Speed Precip Events Conditions
12:16 AM 21.2 °F 8.9 °F 12.2 °F 68% 29.97 in 10.0 mi South 12.7 mph - N/A   Clear
12:36 AM 21.2 °F 11.7 °F 12.2 °F 68% 29.97 in 10.0 mi SSW 8.1 mph - N/A   Clear
12:56 AM 21.2 °F 9.5 °F 12.2 °F 68% 29.97 in 10.0 mi South 11.5 mph - N/A   Clear
1:16 AM 21.2 °F 12.6 °F 14.0 °F 74% 29.98 in 10.0 mi SW 6.9 mph - N/A   Clear
1:36 AM 21.2 °F 8.9 °F 14.0 °F 74% 29.98 in 10.0 mi South 12.7 mph - N/A   Clear
1:56 AM 21.2 °F 9.5 °F 12.2 °F 68% 29.97 in 10.0 mi South 11.5 mph - N/A   Clear
2:16 AM 21.2 °F 11.7 °F 14.0 °F 74% 29.97 in 10.0 mi SSW 8.1 mph - N/A   Clear
2:36 AM 19.4 °F 8.6 °F 12.2 °F 74% 29.97 in 10.0 mi SSW 9.2 mph - N/A   Clear
2:56 AM 21.2 °F 13.6 °F 12.2 °F 68% 29.97 in 10.0 mi SSW 5.8 mph - N/A   Clear
3:16 AM 19.4 °F 11.5 °F 12.2 °F 74% 29.97 in 10.0 mi South 5.8 mph - N/A   Clear
3:36 AM 17.6 °F 12.3 °F 10.4 °F 73% 29.96 in 10.0 mi South 3.5 mph - N/A   Clear
3:56 AM 17.6 °F - 10.4 °F 73% 29.96 in 10.0 mi Calm Calm - N/A   Clear
4:16 AM 17.6 °F - 10.4 °F 73% 29.95 in 10.0 mi Calm Calm - N/A   Clear
4:36 AM 17.6 °F 9.3 °F 10.4 °F 73% 29.95 in 10.0 mi South 5.8 mph - N/A   Clear
4:56 AM 17.6 °F 8.2 °F 8.6 °F 68% 29.95 in 10.0 mi South 6.9 mph - N/A   Clear
5:16 AM 15.8 °F 5.1 °F 10.4 °F 79% 29.95 in 10.0 mi South 8.1 mph - N/A   Clear
5:36 AM 17.6 °F 8.2 °F 12.2 °F 79% 29.95 in 10.0 mi SSW 6.9 mph - N/A   Clear
5:56 AM 17.6 °F 7.3 °F 10.4 °F 73% 29.94 in 10.0 mi SSW 8.1 mph - N/A   Clear
6:16 AM 17.6 °F 6.4 °F 10.4 °F 73% 29.94 in 10.0 mi South 9.2 mph - N/A   Clear
6:36 AM 21.2 °F 10.9 °F 15.8 °F 80% 29.94 in 10.0 mi SSW 9.2 mph - N/A   Clear
6:56 AM 17.6 °F 10.7 °F 10.4 °F 73% 29.94 in 10.0 mi SW 4.6 mph - N/A   Clear
7:16 AM 17.6 °F 12.3 °F 10.4 °F 73% 29.94 in 10.0 mi SW 3.5 mph - N/A   Clear
7:36 AM 17.6 °F 8.2 °F 10.4 °F 73% 29.94 in 10.0 mi SSW 6.9 mph - N/A   Clear
7:56 AM 17.6 °F 8.2 °F 10.4 °F 73% 29.94 in 10.0 mi SSW 6.9 mph - N/A   Clear
8:16 AM 15.8 °F 8.6 °F 8.6 °F 73% 29.94 in 10.0 mi SSW 4.6 mph - N/A   Clear
8:36 AM 15.8 °F 10.2 °F 10.4 °F 79% 29.93 in 10.0 mi South 3.5 mph - N/A   Clear
8:56 AM 15.8 °F 7.2 °F 8.6 °F 73% 29.93 in 10.0 mi SSW 5.8 mph - N/A   Clear
9:16 AM 17.6 °F - 10.4 °F 73% 29.93 in 10.0 mi Calm Calm - N/A   Clear
9:36 AM 15.8 °F - 8.6 °F 73% 29.93 in 10.0 mi Calm Calm - N/A   Clear
9:56 AM 15.8 °F 10.2 °F 8.6 °F 73% 29.93 in 10.0 mi South 3.5 mph - N/A   Clear
10:16 AM 15.8 °F - 8.6 °F 73% 29.93 in 9.0 mi Calm Calm - N/A   Clear
10:36 AM 15.8 °F - 8.6 °F 73% 29.93 in 10.0 mi Calm Calm - N/A   Clear
10:56 AM 15.8 °F - 10.4 °F 79% 29.92 in 10.0 mi Calm Calm - N/A   Clear
11:16 AM 17.6 °F - 10.4 °F 73% 29.92 in 10.0 mi Calm Calm - N/A   Clear
11:36 AM 15.8 °F - 8.6 °F 73% 29.92 in 10.0 mi Calm Calm - N/A   Clear
11:56 AM 15.8 °F - 8.6 °F 73% 29.91 in 10.0 mi Calm Calm - N/A   Clear
12:16 PM 15.8 °F 10.2 °F 8.6 °F 73% 29.91 in 10.0 mi SSW 3.5 mph - N/A   Clear
12:36 PM 15.8 °F 10.2 °F 8.6 °F 73% 29.90 in 10.0 mi SSW 3.5 mph - N/A   Clear
12:56 PM 12.2 °F - 6.8 °F 79% 29.90 in 10.0 mi Calm Calm - N/A   Clear
1:16 PM 14.0 °F - 8.6 °F 79% 29.90 in 10.0 mi Calm Calm - N/A   Clear
1:36 PM 14.0 °F 8.2 °F 8.6 °F 79% 29.90 in 8.0 mi SW 3.5 mph - N/A   Clear
1:56 PM 12.2 °F 4.3 °F 5.0 °F 73% 29.90 in 9.0 mi SSW 4.6 mph - N/A   Clear
2:16 PM 12.2 °F - 6.8 °F 79% 29.90 in 10.0 mi Calm Calm - N/A   Clear
2:36 PM 15.8 °F 10.2 °F 8.6 °F 73% 29.90 in 9.0 mi SW 3.5 mph - N/A   Clear
2:56 PM 14.0 °F - 6.8 °F 73% 29.90 in 10.0 mi Calm Calm - N/A   Clear
3:16 PM 12.2 °F 6.1 °F 6.8 °F 79% 29.89 in 10.0 mi SW 3.5 mph - N/A   Clear
3:36 PM 12.2 °F - 6.8 °F 79% 29.89 in 10.0 mi Calm Calm - N/A   Clear
3:56 PM 12.2 °F 6.1 °F 6.8 °F 79% 29.89 in 8.0 mi SSW 3.5 mph - N/A   Clear
4:16 PM 12.2 °F 4.3 °F 6.8 °F 79% 29.88 in 10.0 mi SSW 4.6 mph - N/A   Clear
4:36 PM 14.0 °F 8.2 °F 8.6 °F 79% 29.87 in 10.0 mi SSW 3.5 mph - N/A   Clear
4:56 PM 12.2 °F 2.9 °F 6.8 °F 79% 29.86 in 10.0 mi South 5.8 mph - N/A   Clear
5:16 PM 12.2 °F 2.9 °F 8.6 °F 85% 29.86 in 10.0 mi South 5.8 mph - N/A   Clear
5:36 PM 12.2 °F 6.1 °F 6.8 °F 79% 29.85 in 10.0 mi SSW 3.5 mph - N/A   Clear
5:56 PM 12.2 °F 4.3 °F 8.6 °F 85% 29.84 in 10.0 mi South 4.6 mph - N/A   Clear
6:16 PM 15.8 °F 5.1 °F 8.6 °F 73% 29.84 in 10.0 mi SSW 8.1 mph - N/A   Clear
6:36 PM 15.8 °F 5.1 °F 10.4 °F 79% 29.83 in 10.0 mi South 8.1 mph - N/A   Clear
6:56 PM 15.8 °F 6.1 °F 8.6 °F 73% 29.83 in 10.0 mi South 6.9 mph - N/A   Clear
7:16 PM 14.0 °F 5.1 °F 6.8 °F 73% 29.83 in 10.0 mi SW 5.8 mph - N/A   Clear
7:36 PM 12.2 °F - 5.0 °F 73% 29.83 in 10.0 mi Calm Calm - N/A   Clear
7:56 PM 17.6 °F - 10.4 °F 73% 29.84 in 10.0 mi Calm Calm - N/A   Clear
8:16 PM 17.6 °F 8.2 °F 10.4 °F 73% 29.84 in 10.0 mi SSW 6.9 mph - N/A   Clear
8:36 PM 17.6 °F 12.3 °F 8.6 °F 68% 29.84 in 10.0 mi SSW 3.5 mph - N/A   Clear
8:56 PM 17.6 °F 10.7 °F 10.4 °F 73% 29.83 in 10.0 mi WSW 4.6 mph - N/A   Clear
9:16 PM 19.4 °F - 10.4 °F 68% 29.82 in 10.0 mi Calm Calm - N/A   Clear
9:36 PM 19.4 °F - 10.4 °F 68% 29.82 in 10.0 mi Calm Calm - N/A   Clear
9:56 PM 15.8 °F 10.2 °F 8.6 °F 73% 29.83 in 10.0 mi South 3.5 mph - N/A   Clear
10:16 PM 17.6 °F 10.7 °F 10.4 °F 73% 29.83 in 10.0 mi SSE 4.6 mph - N/A   Clear
10:36 PM 17.6 °F 12.3 °F 10.4 °F 73% 29.83 in 10.0 mi South 3.5 mph - N/A   Clear
10:56 PM 17.6 °F - 10.4 °F 73% 29.83 in 10.0 mi Calm Calm - N/A   Clear
11:16 PM 17.6 °F - 8.6 °F 68% 29.83 in 10.0 mi Calm Calm - N/A   Clear
11:36 PM 17.6 °F - 10.4 °F 73% 29.83 in 10.0 mi Calm Calm - N/A   Clear
11:56 PM 19.4 °F 11.5 °F 10.4 °F 68% 29.83 in 10.0 mi WSW 5.8 mph - N/A   Clear